STARLINK-30354, 57772

Orbit data source: Space-Track

STARLINK-30354, 57772 is a payload satellite owned by SpaceX/Seattle (US) in LEO that was launched on Mon, 04 Sep 2023 UTC via an FALCON 9 launch vehicle from the Air Force Eastern Test Range (AFETR). Payload-class satellites include a variety of spacecraft equipped with specific instruments for various scientific and technological missions. These include communications satellites like Starlink; space stations such as the ISS; scientific satellites like the Hubble; Earth observation satellites from companies like Planet Labs, Umbra, and HawkEye 360; GPS; miniature CubeSats for education and research; and military/defense satellites.

Loading next visibility...
Identifier
57772, 2023-134B
Orbit
LEO
Country
Flag of USUS
Related business
Manufacturer
SpaceX/Seattle
Mission
Operational Commercial Communications
Bus & Motor
STARLINK V2M, Unknown motor
Mass
730 kg wet, ~700 kg dry
Launch date (UTC)
2023-09-04 (2 years ago)
Launch vehicle
FALCON 9
Launch site
Air Force Eastern Test Range (AFETR)
Object type
Payload
Rocket body
Debris
Shape & HBR
Box + 2 Pan, 17.7 m
Radar Cross Section
33.884 m², Large (>1 m²)

Expand to show TLE details & history
Last TLE update: 13 hours ago

TLE from 13 hours ago
0 STARLINK-30354
1 57772U 23134B   25346.92793194  .00004575  00000-0  35362-3 0  9998
2 57772  43.0044 308.6357 0001298 268.5303  91.5391 15.02529645126426
Epoch: 2025-12-12T22:16Z
TLE epoch observation values (Epoch: 2025-12-12T22:16:13.319Z)
Latitude
-0°
Longitude
-107.28232°
Altitude
558.902 km
Speed
7.584 km/s
True Right ascension
20h 34m 32s
True Declination
0° 00' 00"
Sunlit
Object was in daylight at epoch
Visualization orbit readout
Latitude
Unknown
Longitude
Unknown
Altitude
Unknown
Speed
Unknown
Apparent Right ascension
Unknown
Apparent Declination
Unknown
Sunlit
N/A
Visualization observer readout
Local Sidereal Time
09:16:23
Azimuth
Unknown
Elevation
Unknown
Doppler factor
Unknown
Orbital elements
Apogee altitude
561.923 km
Perigee altitude
560.122 km
Semi-major axis
6,939.159 km
Eccentricity
0.00013
Inclination
43.0044°
RAAN
308.6357°
Arg. of periapsis
268.5303°
True anomaly
91.55397°
Mean anomaly
91.5391°
Eccentric anomaly
91.54653°
Mean motion
3.75477 °/min
Orbital period
95.88 mins
BSTAR
0.00035362
Loading maneuver chart data...
Computing Atmospheric mass density...
Loading historical data...
Loading historical data...
Loading historical data...
Loading historical data...
Loading historical data...
Loading historical data...
Loading historical data...

Documentation

Showing up to 5 results
|